EW4685 Weather Reports


Display with metric or nautical units.
time (UTC)temp
F
wind
direction
speed
MPH
gust
MPH
rain 1hr
in
rain 24hr
in
rain mn
in
humidity
%
barometer
mb
20260905073135 55 295 4.0 12.0 0.02 0.24 0.24 79 1007.8
20260905072629 55 315 4.0 14.0 0.02 0.24 0.24 80 1007.7
20260905072125 55 295 4.0 14.0 0.03 0.24 0.24 81 1007.7
20260905071619 55 315 4.0 13.0 0.03 0.24 0.24 83 1007.7
20260905071333 55 268 4.0 15.0 0.05 0.24 0.24 85 1007.7
20260905070612 55 325 5.0 16.0 0.05 0.24 0.24 86 1007.6
20260905070059 55 268 4.0 16.0 0.05 0.24 0.24 89 1007.7
20260905065556 54 65 4.0 14.0 0.05 0.24 0.24 90 1007.5
20260905065047 54 346 4.0 11.0 0.04 0.24 0.24 91 1007.6
20260905064541 54 189 4.0 11.0 0.04 0.24 0.24 91 1007.4
20260905064040 54 257 4.0 14.0 0.03 0.23 0.23 91 1007.6
20260905063750 55 294 4.0 14.0 0.03 0.23 0.23 90 1007.5
20260905063026 55 41 4.0 15.0 0.02 0.22 0.22 90 1007.6
20260905062526 55 309 5.0 15.0 0.02 0.22 0.22 90 1007.5
20260905062027 54 2 5.0 14.0 0.02 0.21 0.21 91 1007.2
20260905061527 54 324 4.0 11.0 0.02 0.21 0.21 91 1007.4
20260905061246 54 32 4.0 10.0 0.00 0.20 0.20 91 1007.4
20260905060526 54 6 3.0 9.0 0.00 0.20 0.20 91 1007.4
20260905060026 54 33 3.0 12.0 0.00 0.20 0.20 90 1007.3
20260905055744 54 348 3.0 12.0 0.00 0.20 0.20 90 1007.4
20260905055026 54 50 3.0 9.0 0.00 0.20 0.20 90 1007.2
20260905054525 54 325 3.0 13.0 0.00 0.20 0.20 90 1007.4
20260905054026 54 46 2.0 13.0 0.00 0.20 0.20 91 1007.6
20260905053526 54 293 2.0 6.0 0.01 0.20 0.20 91 1007.7
20260905053026 54 17 2.0 8.0 0.02 0.20 0.20 91 1007.7
20260905052525 54 355 2.0 8.0 0.04 0.20 0.20 92 1008.0
20260905052026 53 67 3.0 11.0 0.05 0.20 0.20 92 1008.1
20260905051527 53 341 5.0 15.0 0.06 0.20 0.20 92 1008.5
20260905051027 53 35 4.0 15.0 0.06 0.20 0.20 92 1008.7
20260905050522 53 33 3.0 8.0 0.06 0.20 0.20 92 1009.0
20260905050016 53 17 2.0 11.0 0.07 0.20 0.20 92 1008.9
20260905045507 54 73 2.0 11.0 0.07 0.20 0.20 92 1008.9
20260905045004 54 45 2.0 9.0 0.07 0.20 0.20 92 1009.2
20260905044457 53 36 2.0 9.0 0.08 0.20 0.20 91 1009.3
20260905044215 53 332 2.0 7.0 0.08 0.20 0.20 91 1009.4
20260905043445 53 52 1.0 5.0 0.07 0.18 0.19 90 1009.6
20260905042940 54 270 1.0 5.0 0.07 0.17 0.17 90 1010.5
20260905042651 54 340 1.0 8.0 0.06 0.16 0.16 89 1010.4
20260905041927 54 326 2.0 8.0 0.05 0.15 0.15 88 1010.3
20260905041421 54 320 3.0 8.0 0.05 0.14 0.14 87 1010.4
20260905040916 54 247 3.0 8.0 0.04 0.13 0.13 86 1010.3
20260905040414 54 291 3.0 8.0 0.04 0.13 0.13 86 1010.4
20260905040359 54 268 3.0 8.0 0.03 0.13 0.13 86 1010.6
20260905035414 55 0 2.0 9.0 0.03 0.13 0.13 86 1010.7
20260905035141 55 26 2.0 9.0 0.03 0.13 0.13 85 1010.7
20260905034413 55 315 2.0 8.0 0.02 0.12 0.12 86 1010.4
20260905033916 55 252 2.0 8.0 0.02 0.12 0.12 85 1010.7
20260905033413 56 315 3.0 13.0 0.02 0.11 0.11 84 1010.4
20260905032913 56 22 4.0 13.0 0.01 0.10 0.10 83 1010.7
20260905032638 57 236 3.0 9.0 0.01 0.10 0.10 83 1011.1
20260905031914 57 284 3.0 11.0 0.01 0.10 0.10 82 1010.6
20260905031637 57 272 3.0 11.0 0.00 0.09 0.09 81 1010.4
20260905030914 58 312 4.0 11.0 0.00 0.09 0.09 80 1010.3
20260905030414 58 305 4.0 13.0 0.00 0.09 0.09 79 1010.1
20260905025916 58 294 4.0 13.0 0.00 0.09 0.09 79 1010.1
20260905025410 58 351 4.0 14.0 0.00 0.09 0.09 79 1009.8
20260905024910 59 23 4.0 14.0 0.00 0.09 0.09 78 1009.7
20260905024410 59 35 4.0 14.0 0.00 0.09 0.09 79 1010.3
20260905024404 59 62 4.0 14.0 0.00 0.09 0.09 79 1010.1
20260905023409 59 354 3.0 10.0 0.00 0.09 0.09 82 1010.2
20260905022911 59 283 4.0 9.0 0.00 0.09 0.09 82 1010.1
20260905022641 59 297 3.0 9.0 0.00 0.09 0.09 84 1010.2
20260905021909 59 304 4.0 9.0 0.00 0.09 0.09 84 1010.2
20260905021409 59 297 4.0 9.0 0.00 0.09 0.09 84 1010.3
20260905021350 59 42 4.0 10.0 0.00 0.09 0.09 84 1010.4
20260905020409 58 4 4.0 10.0 0.00 0.09 0.09 86 1010.5
20260905015909 58 283 3.0 8.0 0.00 0.09 0.09 87 1010.5
20260905015410 58 318 2.0 8.0 0.00 0.09 0.09 89 1010.6
20260905014911 58 303 2.0 7.0 0.01 0.09 0.09 89 1010.6
20260905014415 58 309 1.0 7.0 0.01 0.09 0.09 90 1010.4
20260905013910 57 325 1.0 5.0 0.01 0.09 0.09 91 1010.6
20260905013411 57 292 2.0 5.0 0.01 0.09 0.09 91 1010.9
20260905012910 57 31 1.0 5.0 0.01 0.09 0.09 90 1011.2
20260905012410 56 331 1.0 5.0 0.02 0.09 0.09 91 1011.2
20260905012142 56 276 2.0 7.0 0.02 0.09 0.09 91 1011.3
20260905011409 56 302 2.0 7.0 0.02 0.09 0.09 91 1011.3
20260905011132 56 16 2.0 7.0 0.02 0.09 0.09 92 1011.3
20260905010409 56 301 2.0 6.0 0.03 0.09 0.09 92 1011.3
20260905005910 55 41 2.0 6.0 0.05 0.09 0.09 92 1011.4
20260905005639 55 57 2.0 6.0 0.06 0.09 0.09 91 1011.5
20260905004910 55 57 3.0 7.0 0.07 0.09 0.09 92 1011.8
20260905004409 54 17 4.0 9.0 0.07 0.09 0.09 91 1012.0
20260905003920 54 27 3.0 9.0 0.08 0.09 0.09 91 1012.0
20260905003409 54 3 3.0 8.0 0.09 0.09 0.09 90 1012.4
20260905002858 54 17 2.0 5.0 0.09 0.09 0.09 90 1012.2
20260905002619 54 15 2.0 9.0 0.08 0.08 0.08 90 1012.4
20260905001845 54 40 2.0 9.0 0.08 0.08 0.08 89 1012.6
20260905001344 55 8 2.0 7.0 0.07 0.07 0.08 88 1012.5
20260905001109 55 38 1.0 7.0 0.07 0.07 0.07 88 1012.7
20260905000342 55 38 1.0 5.0 0.06 0.06 0.06 88 1012.9
20260904235841 55 22 1.0 6.0 0.05 0.05 0.06 87 1012.8
20260904235341 56 278 1.0 6.0 0.03 0.03 0.03 85 1013.1
20260904234842 56 325 1.0 7.0 0.02 0.02 0.02 84 1012.7
20260904234342 57 355 2.0 8.0 0.02 0.02 0.02 82 1012.5
20260904233842 57 32 2.0 9.0 0.01 0.01 0.01 80 1012.7
20260904233341 58 313 3.0 9.0 0.00 0.00 0.00 79 1012.6
20260904232843 58 294 2.0 9.0 0.00 0.00 0.00 79 1012.5
20260904232342 58 339 2.0 9.0 0.00 0.00 0.00 79 1012.5
20260904231842 57 52 2.0 6.0 0.00 0.00 0.00 80 1012.4
20260904231605 56 353 2.0 7.0 0.00 0.00 0.00 81 1012.6
20260904230842 56 38 2.0 8.0 0.00 0.00 0.00 81 1012.7
20260904230341 56 302 2.0 8.0 0.00 0.00 0.00 80 1012.8
20260904225841 56 303 2.0 8.0 0.00 0.00 0.00 81 1013.0
20260904225600 56 67 3.0 8.0 0.00 0.00 0.00 80 1013.0
20260904224828 56 331 2.0 6.0 0.00 0.00 0.00 78 1012.7
20260904224324 56 301 2.0 6.0 0.00 0.00 0.00 77 1013.0
20260904223817 56 325 2.0 7.0 0.00 0.00 0.00 76 1013.2
20260904223311 57 339 2.0 7.0 0.00 0.00 0.00 75 1013.6
20260904222805 57 52 1.0 6.0 0.00 0.00 0.00 74 1013.8
20260904222259 56 331 1.0 8.0 0.00 0.00 0.00 75 1013.8
20260904221753 56 64 2.0 8.0 0.00 0.00 0.00 75 1013.9
20260904221246 56 308 2.0 6.0 0.00 0.00 0.00 75 1013.8
20260904220741 56 45 2.0 7.0 0.00 0.00 0.00 75 1013.9
20260904220235 56 51 1.0 7.0 0.00 0.00 0.00 76 1013.8
20260904215729 55 88 1.0 7.0 0.00 0.00 0.00 77 1013.7
20260904215224 54 286 3.0 11.0 0.00 0.00 0.00 78 1013.6
20260904214717 54 354 2.0 11.0 0.00 0.00 0.00 78 1013.5
20260904214210 53 348 1.0 4.0 0.00 0.00 0.00 79 1013.6
20260904213705 53 108 0.0 3.0 0.00 0.00 0.00 80 1013.6
20260904213159 53 355 0.0 3.0 0.00 0.00 0.00 81 1013.7
20260904212653 52 34 0.0 0.0 0.00 0.00 0.00 82 1013.7
20260904212146 52 34 0.0 0.0 0.00 0.00 0.00 82 1013.8
20260904211641 52 34 0.0 0.0 0.00 0.00 0.00 83 1013.7
20260904211135 51 34 0.0 1.0 0.00 0.00 0.00 83 1013.6
20260904210629 51 15 0.0 3.0 0.00 0.00 0.00 84 1013.7
20260904210125 50 337 0.0 3.0 0.00 0.00 0.00 85 1013.9
20260904205617 50 22 0.0 1.0 0.00 0.00 0.00 84 1014.0
20260904205112 50 69 0.0 1.0 0.00 0.00 0.00 84 1014.1
20260904204605 50 270 0.0 0.0 0.00 0.00 0.00 84 1014.1
20260904204059 50 270 0.0 0.0 0.00 0.00 0.00 85 1014.2
20260904203554 50 339 0.0 0.0 0.00 0.00 0.00 85 1014.2
20260904203047 50 339 0.0 2.0 0.00 0.00 0.00 84 1014.1
20260904202543 50 319 0.0 2.0 0.00 0.00 0.00 85 1014.1
20260904202035 50 32 1.0 3.0 0.00 0.00 0.00 85 1014.1
20260904201530 50 40 1.0 4.0 0.00 0.00 0.00 85 1014.1
20260904201026 50 36 1.0 5.0 0.00 0.00 0.00 86 1014.2
20260904200518 50 52 1.0 5.0 0.00 0.00 0.00 86 1014.0
20260904200012 49 40 1.0 3.0 0.00 0.00 0.00 87 1014.1
20260904195506 49 39 0.0 2.0 0.00 0.00 0.00 87 1014.2
20260904194958 49 47 0.0 2.0 0.00 0.00 0.00 87 1014.2
20260904194454 49 45 0.0 0.0 0.00 0.00 0.00 86 1014.4
20260904194206 49 45 0.0 2.0 0.00 0.00 0.00 86 1014.4
20260904193441 49 33 1.0 2.0 0.00 0.00 0.00 87 1014.5
20260904192935 49 47 1.0 3.0 0.00 0.00 0.00 88 1014.4
20260904192431 49 34 1.0 3.0 0.00 0.00 0.00 88 1014.6
20260904191926 49 50 1.0 3.0 0.00 0.00 0.00 88 1014.7
20260904191639 49 38 0.0 2.0 0.00 0.00 0.00 88 1014.8
20260904191127 49 52 0.0 0.0 0.00 0.00 0.00 87 1015.0
20260904190407 49 52 0.0 0.0 0.00 0.00 0.00 87 1014.8
20260904185858 49 52 0.0 0.0 0.00 0.00 0.00 86 1014.8
20260904185353 50 52 0.0 0.0 0.00 0.00 0.00 85 1015.0
20260904184847 50 52 0.0 0.0 0.00 0.00 0.00 86 1015.0
20260904184343 50 52 1.0 3.0 0.00 0.00 0.00 86 1014.7
20260904183836 50 24 1.0 3.0 0.00 0.00 0.00 87 1014.6
20260904183330 50 42 0.0 2.0 0.00 0.00 0.00 86 1014.5
20260904182825 50 43 0.0 1.0 0.00 0.00 0.00 85 1014.6
20260904182539 50 43 0.0 1.0 0.00 0.00 0.00 85 1014.6
20260904181817 51 341 0.0 2.0 0.00 0.00 0.00 84 1014.6
20260904181316 51 341 0.0 2.0 0.00 0.00 0.00 84 1014.4
20260904180817 51 327 0.0 3.0 0.00 0.00 0.00 84 1014.3
20260904180317 51 273 0.0 3.0 0.00 0.00 0.00 84 1014.4
20260904180301 51 289 0.0 3.0 0.00 0.00 0.00 84 1014.5
20260904175315 51 354 0.0 2.0 0.00 0.00 0.00 84 1014.5
20260904174813 51 29 1.0 6.0 0.00 0.00 0.00 84 1014.6
20260904174311 51 354 1.0 6.0 0.00 0.00 0.00 84 1014.7
20260904173813 51 59 0.0 2.0 0.00 0.00 0.00 85 1014.8
20260904173310 51 52 1.0 3.0 0.00 0.00 0.00 85 1014.8
20260904172809 51 13 1.0 3.0 0.00 0.00 0.00 85 1015.0
20260904172526 51 47 0.0 3.0 0.00 0.00 0.00 85 1014.7
20260904171806 51 33 0.0 4.0 0.00 0.00 0.00 85 1014.8
20260904171306 51 85 1.0 5.0 0.00 0.00 0.00 86 1014.7
20260904170805 50 39 1.0 5.0 0.00 0.00 0.00 86 1015.0
20260904170306 50 38 2.0 6.0 0.00 0.00 0.00 86 1015.1
20260904165801 50 41 2.0 6.0 0.00 0.00 0.00 86 1015.2
20260904165301 50 39 1.0 5.0 0.00 0.00 0.00 86 1015.2
20260904164802 50 43 1.0 3.0 0.00 0.00 0.00 86 1015.4
20260904164303 50 13 1.0 4.0 0.00 0.00 0.00 86 1015.6
20260904163801 50 59 2.0 4.0 0.00 0.00 0.00 86 1015.6
20260904163524 50 8 1.0 4.0 0.00 0.00 0.00 86 1015.4
20260904162801 50 25 1.0 4.0 0.00 0.00 0.00 86 1015.5
20260904162300 50 3 1.0 4.0 0.00 0.00 0.00 86 1015.5
20260904161802 50 339 1.0 4.0 0.00 0.00 0.00 87 1015.6
20260904161257 50 13 1.0 4.0 0.00 0.00 0.00 87 1015.6
20260904161246 50 22 0.0 3.0 0.00 0.00 0.00 86 1015.9
20260904160257 51 36 0.0 3.0 0.00 0.00 0.00 86 1016.0
20260904155756 51 311 1.0 5.0 0.00 0.00 0.00 85 1016.2
20260904155256 51 355 1.0 5.0 0.00 0.00 0.00 86 1016.3
20260904154756 51 14 1.0 5.0 0.00 0.00 0.00 86 1016.1
20260904154257 51 358 2.0 9.0 0.00 0.00 0.00 86 1016.0
20260904153758 51 25 2.0 9.0 0.00 0.00 0.00 86 1016.0
20260904153257 51 32 2.0 8.0 0.00 0.00 0.00 86 1016.1
20260904152757 51 29 2.0 8.0 0.00 0.00 0.00 87 1016.2
20260904152256 50 352 0.0 4.0 0.00 0.00 0.00 87 1016.3
20260904151757 50 328 0.0 4.0 0.00 0.00 0.00 87 1016.3
20260904151255 50 40 2.0 10.0 0.00 0.00 0.00 88 1016.3
20260904150755 50 337 3.0 10.0 0.00 0.00 0.00 88 1016.3
20260904150517 50 25 2.0 6.0 0.00 0.00 0.00 88 1016.3
20260904145755 50 12 1.0 5.0 0.00 0.00 0.00 88 1016.4
20260904145255 50 12 1.0 4.0 0.00 0.00 0.00 87 1016.3
20260904144755 50 351 2.0 6.0 0.00 0.00 0.00 87 1016.7
20260904144520 50 42 3.0 6.0 0.00 0.00 0.00 87 1016.7
20260904143754 51 57 3.0 7.0 0.00 0.00 0.00 86 1016.5
20260904143254 51 42 3.0 7.0 0.00 0.00 0.00 86 1016.7
20260904142755 51 29 2.0 7.0 0.00 0.00 0.00 86 1016.8
20260904142248 51 359 1.0 6.0 0.00 0.00 0.00 86 1016.8
20260904141742 51 31 1.0 4.0 0.00 0.00 0.00 86 1016.7
20260904141235 51 34 1.0 6.0 0.00 0.00 0.00 86 1016.8
20260904140951 51 55 1.0 6.0 0.00 0.00 0.00 86 1016.8
20260904140225 51 297 1.0 5.0 0.00 0.00 0.00 86 1016.8
20260904135718 51 321 1.0 5.0 0.00 0.00 0.00 86 1016.8
20260904135212 51 61 1.0 6.0 0.00 0.00 0.00 86 1016.8
20260904134711 51 14 1.0 8.0 0.00 0.00 0.00 86 1016.8
20260904134212 51 322 1.0 8.0 0.00 0.00 0.00 86 1016.9
20260904133655 51 53 1.0 5.0 0.00 0.00 0.00 86 1016.8
20260904133150 51 45 1.0 5.0 0.00 0.00 0.00 86 1016.7
20260904132920 51 38 1.0 4.0 0.00 0.00 0.00 86 1016.8
20260904132137 51 56 1.0 3.0 0.00 0.00 0.00 87 1016.8
20260904131631 51 53 0.0 3.0 0.00 0.00 0.00 87 1016.9
20260904131124 51 48 0.0 1.0 0.00 0.00 0.00 87 1016.9
20260904130618 51 50 0.0 1.0 0.00 0.00 0.00 87 1017.0
20260904130111 51 40 0.0 3.0 0.00 0.00 0.00 86 1017.2
20260904125605 51 64 0.0 3.0 0.00 0.00 0.00 86 1017.3
20260904125059 51 48 0.0 3.0 0.00 0.00 0.00 86 1017.4
20260904124554 51 62 0.0 3.0 0.00 0.00 0.00 86 1017.4
20260904124046 51 38 0.0 5.0 0.00 0.00 0.00 85 1017.5
20260904123547 52 52 1.0 5.0 0.00 0.00 0.00 85 1017.6
20260904123047 52 48 1.0 5.0 0.00 0.00 0.00 85 1017.6
20260904122547 52 43 1.0 4.0 0.00 0.00 0.00 85 1017.8
20260904122529 52 40 0.0 2.0 0.00 0.00 0.00 84 1017.7
20260904122039 52 54 0.0 2.0 0.00 0.00 0.00 84 1017.8
20260904121043 52 55 0.0 3.0 0.00 0.00 0.00 83 1017.8
20260904120543 53 55 0.0 3.0 0.00 0.00 0.00 83 1017.9
20260904120043 53 55 0.0 2.0 0.00 0.00 0.00 82 1018.0
20260904115544 53 62 0.0 2.0 0.00 0.00 0.00 82 1018.0
20260904115039 53 30 0.0 0.0 0.00 0.00 0.00 81 1018.0
20260904114802 54 312 0.0 3.0 0.00 0.00 0.00 80 1018.0
20260904114259 54 57 1.0 5.0 0.00 0.00 0.00 80 1018.1
20260904113535 54 51 1.0 7.0 0.00 0.00 0.00 79 1018.2
20260904113035 54 57 1.0 7.0 0.00 0.00 0.00 79 1018.2
20260904112534 54 86 1.0 5.0 0.00 0.00 0.00 79 1018.4
20260904112035 54 40 1.0 5.0 0.00 0.00 0.00 78 1018.5
20260904111535 54 44 0.0 4.0 0.00 0.00 0.00 78 1018.5
20260904111035 54 58 1.0 4.0 0.00 0.00 0.00 78 1018.5
20260904110535 54 62 1.0 5.0 0.00 0.00 0.00 78 1018.5
20260904110035 54 52 1.0 5.0 0.00 0.00 0.00 77 1018.6
20260904105534 54 32 1.0 8.0 0.00 0.00 0.00 76 1018.7
20260904105034 54 37 1.0 8.0 0.00 0.00 0.00 76 1018.7
20260904104534 54 38 0.0 6.0 0.00 0.00 0.00 76 1018.7
20260904104034 54 44 1.0 6.0 0.00 0.00 0.00 75 1018.7
20260904103534 54 337 2.0 6.0 0.00 0.00 0.00 75 1018.7
20260904103300 54 355 1.0 5.0 0.00 0.00 0.00 75 1018.7
20260904102535 54 50 1.0 5.0 0.00 0.00 0.00 75 1018.5
20260904102035 54 3 1.0 5.0 0.00 0.00 0.00 74 1018.6
20260904101535 54 52 0.0 4.0 0.00 0.00 0.00 74 1018.6
20260904101035 54 30 0.0 2.0 0.00 0.00 0.00 74 1018.6
20260904100528 54 26 1.0 4.0 0.00 0.00 0.00 74 1018.6
20260904100021 55 30 1.0 6.0 0.00 0.00 0.00 73 1018.6
20260904095513 55 38 1.0 6.0 0.00 0.00 0.00 73 1018.6
20260904095008 55 41 1.0 4.0 0.00 0.00 0.00 72 1018.5
20260904094501 55 327 0.0 5.0 0.00 0.00 0.00 72 1018.5
20260904094221 55 321 1.0 6.0 0.00 0.00 0.00 71 1018.5
20260904093450 55 33 1.0 5.0 0.00 0.00 0.00 71 1018.4
20260904092943 55 3 1.0 5.0 0.00 0.00 0.00 71 1018.4
20260904092436 55 18 1.0 5.0 0.00 0.00 0.00 71 1018.5
20260904091930 55 40 0.0 4.0 0.00 0.00 0.00 72 1018.4
20260904091424 55 38 0.0 3.0 0.00 0.00 0.00 71 1018.5
20260904090920 55 294 0.0 3.0 0.00 0.00 0.00 71 1018.5
20260904090412 55 310 0.0 1.0 0.00 0.00 0.00 71 1018.5
20260904085906 55 38 0.0 0.0 0.00 0.00 0.00 71 1018.4
20260904085400 55 38 0.0 0.0 0.00 0.00 0.00 70 1018.6
20260904085115 56 38 0.0 2.0 0.00 0.00 0.00 69 1018.6
20260904084607 56 38 0.0 3.0 0.00 0.00 0.00 69 1018.5
20260904083842 56 21 1.0 4.0 0.00 0.00 0.00 69 1018.5
20260904083335 56 340 0.0 4.0 0.00 0.00 0.00 68 1018.5
20260904082830 56 5 1.0 5.0 0.00 0.00 0.00 68 1018.5
20260904082543 56 31 1.0 5.0 0.00 0.00 0.00 68 1018.4
20260904081818 56 284 0.0 4.0 0.00 0.00 0.00 67 1018.2
20260904081312 56 343 0.0 4.0 0.00 0.00 0.00 67 1018.2
20260904080806 56 349 0.0 4.0 0.00 0.00 0.00 66 1018.4
20260904080300 56 292 0.0 4.0 0.00 0.00 0.00 66 1018.2
20260904080020 57 10 0.0 2.0 0.00 0.00 0.00 66 1018.4
20260904075250 57 20 1.0 5.0 0.00 0.00 0.00 65 1018.2
20260904075226 57 3 1.0 5.0 0.00 0.00 0.00 65 1018.2
20260904074236 57 303 1.0 6.0 0.00 0.00 0.00 65 1018.1
20260904073958 57 273 1.0 6.0 0.00 0.00 0.00 64 1018.1